Terminal Aerodrome Forecast
Issued by NWS

Home | Current Version | Previous Version | Text Only | Print | Product List | Glossary On
Versions: 1 2 3 4 5 6 7 8 9 10 11 12 13 14 15 16 17 18 19 20 21 22 23 24 25 26 27 28 29 30 31 32 33
000
FTUS41 KBOX 212323
TAFBED
TAF
KBED 212323Z 2200/2224 VRB03KT P6SM BKN012
     FM220200 VRB03KT P6SM SCT012 BKN050
     FM220700 VRB03KT P6SM OVC020
     FM221300 00000KT P6SM OVC040
     FM221600 VRB03KT P6SM OVC015=

USA.gov is the U.S. government's official web portal to all federal, state and local government web resources and services.